Tracking 31011 objects as of 11-Jul-2025
HD Live streaming from Space Station
objects crossing your sky now

CZ-6A DEB

Track CZ-6A DEB now!
10-day predictions


NORAD ID: 56607
Int'l Code: 2022-151AEF
Perigee: 716.7 km
Apogee: 884.4 km
Inclination: 98.7 °
Period: 100.7 minutes
Semi major axis: 7171 km
RCS: Unknown
Launch date: November 11, 2022
Source: People's Republic of China (PRC)
Launch site: Taiyaun Space Center, China (TSC)

Note: This is SATELLITE DEBRIS
Your satellite tracking list
Your tracking list is empty




NASA's NSSDC Master Catalog

Two Line Element Set (TLE):
1 56607U 22151AEF 25190.76949225  .00000429  00000-0  17238-3 0  9995
2 56607  98.7164 211.7076 0116869  18.9314 341.6159 14.29497075115174
Source of the keplerian elements: AFSPC